Home   Weather   Serekunda   Past weeks

Flag for Gambia Past Weather in Serekunda, Gambia — Yesterday and Last 2 Weeks

Now
72 °F

Clear.


Feels Like: 69 °F
Forecast: 77 / 92 °F
Wind: 6 mph from Southwest

Location: Banjul / Yundum

Current Time: Dec 4, 2016 at 8:17:13 am

Latest Report: Dec 4, 2016 at 7:00 am


Visibility: 6 mi

Pressure: 29.83 "Hg

Humidity: 88%

Dew Point: 68 °F

Location of SerekundaLocation

Past Weather in Serekunda — Graph

°F

Serekunda Temperature Yesterday

Maximum temperature yesterday: 93 °F (at 12:00 pm)
Minimum temperature yesterday: 72 °F (at 8:00 am)
Average temperature yesterday: 80 °F

High & Low Weather Summary for the Past Weeks

 TemperatureHumidityPressure
High99 °F (Nov 19, 4:00 pm)100% (Nov 20, 1:00 am)29.95 "Hg (Nov 20, 1:00 am)
Low66 °F (Nov 22, 7:00 am)26% (Nov 22, 3:00 pm)29.71 "Hg (Nov 19, 3:00 pm)
Average80 °F68%29.84 "Hg
* Reported Nov 19 7:00 am — Dec 4 7:00 am, Serekunda, Weather by CustomWeather, © 2016

Note: Actual official high and low records may vary slightly from our data, if they occured in-between our weather recording intervals... More about our weather records

Advertising

Serekunda Weather History for the Previous 24 Hours

Scroll right to see more
 ConditionsComfort  
Time TempWeatherWind HumidityBarometerVisibility
7:00 am
Sun, Dec 4
72 °FClear.6 mph88%29.83 "Hg6 mi
6:00 am72 °FClear.7 mph88%29.83 "Hg6 mi
5:00 am73 °FClear.7 mph89%29.83 "Hg6 mi
4:00 am75 °FClear.6 mph94%29.83 "Hg6 mi
3:00 am75 °FClear.5 mph94%29.83 "Hg6 mi
2:00 am75 °FClear.5 mph94%29.86 "Hg10 mi
1:00 am77 °FClear.3 mph89%29.86 "Hg10 mi
12:00 am77 °FClear.2 mph89%29.89 "Hg10 mi
11:00 pm
Sat, Dec 3
77 °FClear.2 mph94%29.89 "Hg10 mi
10:00 pm79 °FClear.3 mph89%29.89 "Hg10 mi
9:00 pm79 °FClear.5 mph89%29.86 "Hg10 mi
8:00 pm81 °FClear.3 mph84%29.83 "Hg10 mi
7:00 pm81 °FClear.3 mph79%29.83 "Hg10 mi
6:00 pm84 °FSunny.5 mph62%29.80 "Hg10 mi
5:00 pm88 °FSunny.9 mph55%29.80 "Hg10 mi
4:00 pm91 °FSunny.5 mph52%29.77 "Hg10 mi
3:00 pm91 °FSunny.5 mph52%29.80 "Hg10 mi
2:00 pm91 °FSunny.5 mph56%29.80 "Hg10 mi
1:00 pm77 °FSunny.9 mph89%29.83 "Hg10 mi
12:00 pm93 °FSunny.6 mph49%29.86 "Hg10 mi
11:00 am88 °FSunny.5 mph62%29.89 "Hg10 mi
10:00 am81 °FSunny.5 mph79%29.89 "Hg10 mi
9:00 am77 °FSunny.7 mph79%29.89 "Hg10 mi
8:00 am72 °FFog.2 mph94%29.86 "Hg6 mi
Weather by CustomWeather, © 2016

See weather overviewHow to use our weather pages